[[{"header":{"parameterUnit":"m.s-1","parameterCategory":2,"la1":30.2991,"la2":30.254,"lo1":-89.0895,"lo2":-89.0444,"dy":0.0017,"dx":0.0017,"nx":28,"ny":28,"refTime":"2024-12-05T09:00:00:Z","depth":"0","parameterNumber":2,"parameterNumberName":"U-component_of_CURRENTS"},"data":[0,0,0,0,0,0,0,0,0,0,0,0,0,0,0,0,0,0,0,0,0,0,0,0,0,0,0,0,0,0,0,0,0,0,0,0,0,0,0,0,0,0,0,0,0,0,0,0,0,0,0,0,0,0,0,0,0,0,-0.2565,-0.2565,0,-0.2597,-0.2598,-0.2598,-0.2579,-0.2578,-0.2577,-0.2577,-0.2539,-0.2538,-0.2538,0,0,0,0,0,0,0,0,0,0,0,0,0,-0.2476,-0.2478,-0.2565,-0.2565,-0.2566,-0.2597,-0.2598,-0.2598,-0.2579,-0.2578,-0.2577,-0.2576,-0.2539,-0.2538,-0.2538,0,0,0,0,0,0,0,0,0,0,0,0,0,-0.2512,-0.2479,-0.2565,-0.2561,-0.2561,-0.2597,-0.2598,-0.2598,-0.2579,-0.2578,-0.2577,-0.2576,-0.2539,-0.2539,-0.2538,-0.2561,0,0,-0.2537,-0.2537,0,0,0,0,0,0,0,0,-0.251,-0.2515,-0.2561,-0.2561,-0.2561,-0.2584,-0.2553,-0.2582,-0.258,-0.2571,-0.2577,-0.2575,-0.2549,-0.2548,-0.2556,-0.2559,-0.2557,-0.2537,-0.2537,-0.2537,-0.2537,0,0,0,0,0,0,0,-0.2507,-0.2513,-0.2576,-0.2562,-0.2562,-0.2554,-0.2558,-0.2558,-0.2564,-0.2572,-0.2571,-0.2577,-0.2548,-0.2556,-0.2555,-0.2557,-0.2537,-0.2537,-0.2537,-0.2536,-0.2556,-0.2556,0,0,0,0,0,0,-0.2508,-0.2511,-0.2575,-0.2578,-0.2533,-0.2557,-0.2561,-0.2577,-0.2566,-0.2564,-0.2578,-0.2576,-0.2558,-0.2555,-0.2553,-0.2558,-0.2537,-0.2536,-0.2536,-0.2555,-0.2556,-0.2557,0,0,0,0,0,0,-0.2506,-0.2514,-0.2574,-0.2545,-0.2552,-0.256,-0.2578,-0.2578,-0.2583,-0.2571,-0.2567,-0.2581,-0.2557,-0.2554,-0.2547,-0.2557,-0.2536,-0.2536,-0.2554,-0.2555,-0.2556,-0.2581,0,0,0,0,0,0,-0.2503,-0.2513,-0.2522,-0.2546,-0.2554,-0.2592,-0.2579,-0.258,-0.2589,-0.2586,-0.2573,-0.2569,-0.2555,-0.2547,-0.2546,-0.2556,-0.2536,-0.2553,-0.2555,-0.2556,-0.2579,-0.2582,-0.2585,0,0,0,0,0,-0.25,-0.2521,-0.2523,-0.253,-0.2568,-0.2593,-0.2597,-0.2596,-0.259,-0.2595,-0.2583,-0.2569,-0.2555,-0.2548,-0.2546,-0.2556,-0.2553,-0.2554,-0.2556,-0.2577,-0.2582,-0.2585,0,0,0,0,0,0,-0.2488,-0.2522,-0.2524,-0.2554,-0.2569,-0.259,-0.2597,-0.2601,-0.2599,-0.2591,-0.2576,-0.2572,-0.2571,-0.2563,-0.2555,-0.2567,-0.2553,-0.2555,-0.257,-0.2574,-0.2577,-0.2586,-0.2535,0,0,0,0,0,-0.2491,-0.251,-0.2539,-0.2558,-0.257,-0.2584,-0.2594,-0.2597,-0.2601,-0.2599,-0.2589,-0.2581,-0.2581,-0.2575,-0.2572,-0.2578,-0.2577,-0.2585,-0.2588,-0.2591,-0.2599,-0.2604,-0.2608,-0.2562,-0.2562,-0.2562,0,0,-0.249,-0.251,-0.252,-0.2556,-0.2568,-0.2589,-0.2586,-0.2603,-0.2615,-0.2595,-0.2598,-0.2592,-0.2586,-0.259,-0.259,-0.2581,-0.2604,-0.2593,-0.2595,-0.2602,-0.2606,-0.2611,-0.2614,-0.2563,-0.2563,-0.2563,0,0,-0.2491,-0.2517,-0.253,-0.255,-0.2573,-0.2589,-0.2595,-0.2616,-0.2619,-0.2626,-0.2617,-0.2618,-0.2611,-0.2614,-0.2614,-0.2637,-0.2623,-0.2634,-0.2654,-0.2659,-0.2663,-0.2666,-0.2672,-0.2675,-0.2633,-0.2633,-0.2633,0,-0.2483,-0.2512,-0.2535,-0.2555,-0.2574,-0.2591,-0.261,-0.2624,-0.2635,-0.2643,-0.2625,-0.2635,-0.2626,-0.2647,-0.265,-0.2645,-0.2642,-0.2637,-0.2663,-0.2666,-0.2669,-0.2674,-0.2677,-0.2634,-0.2634,-0.2634,-0.2634,0,-0.2493,-0.252,-0.2532,-0.2563,-0.2586,-0.2607,-0.2636,-0.265,-0.2654,-0.2665,-0.2679,-0.267,-0.2675,-0.2676,-0.2667,-0.269,-0.268,-0.2668,-0.2652,-0.2675,-0.2679,-0.2682,-0.2636,-0.2636,-0.2635,-0.2635,0,0,-0.2457,-0.2526,-0.2526,-0.2548,-0.2596,-0.2613,-0.2646,-0.268,-0.2702,-0.2703,-0.2727,-0.2728,-0.2723,-0.2725,-0.2718,-0.2723,-0.2739,-0.2702,-0.2702,-0.2706,-0.2748,-0.274,-0.2742,-0.2725,-0.2726,-0.2726,-0.2743,0,-0.2452,-0.2494,-0.2531,-0.2567,-0.2594,-0.2635,-0.2666,-0.2698,-0.2719,-0.2745,-0.2751,-0.2764,-0.2743,-0.2743,-0.2747,-0.2744,-0.2749,-0.2736,-0.2727,-0.2727,-0.2715,-0.2746,-0.2663,-0.267,-0.2746,-0.2746,-0.2747,0,-0.2435,-0.2473,-0.2514,-0.2582,-0.2597,-0.262,-0.2677,-0.2706,-0.2757,-0.2773,-0.2792,-0.2799,-0.2816,-0.2789,-0.2795,-0.2785,-0.277,-0.2764,-0.2764,-0.2751,-0.2725,-0.2659,-0.2673,-0.2657,-0.2752,-0.2751,-0.2751,0,-0.2386,-0.2453,-0.2487,-0.2511,-0.2592,-0.2613,-0.2647,-0.2705,-0.2735,-0.2787,-0.2811,-0.2833,-0.2843,-0.2832,-0.2828,-0.2805,-0.2838,-0.2802,-0.2783,-0.2782,-0.2709,-0.2701,-0.2705,-0.2807,-0.2807,-0.2807,-0.2807,0,-0.2365,-0.2388,-0.2466,-0.2486,-0.2516,-0.2583,-0.2618,-0.2659,-0.2728,-0.2764,-0.2811,-0.2842,-0.2852,-0.2876,-0.2852,-0.2841,-0.2855,-0.2799,-0.279,-0.2716,-0.2708,-0.2689,-0.2708,-0.2807,-0.2807,-0.2807,-0.2807,0,-0.2299,-0.2359,-0.2394,-0.2475,-0.2492,-0.2506,-0.2582,-0.261,-0.2691,-0.2741,-0.2759,-0.2848,-0.2875,-0.2897,-0.2899,-0.2873,-0.2821,-0.2855,-0.2774,-0.2755,-0.2697,-0.2721,-0.2677,-0.2603,-0.2818,-0.2818,-0.2818,0,-0.2273,-0.2286,-0.2354,-0.2361,-0.2391,-0.2431,-0.2455,-0.2557,-0.2597,-0.2736,-0.2753,-0.2833,-0.2869,-0.2901,-0.2893,-0.2876,-0.2818,-0.2775,-0.2714,-0.2699,-0.2719,-0.2671,-0.2608,-0.2624,-0.2622,-0.2621,-0.262,0,-0.2203,-0.2223,-0.2248,-0.2265,-0.2285,-0.2316,-0.2369,-0.2405,-0.2534,-0.2609,-0.2704,-0.2758,-0.2841,-0.2827,-0.2847,-0.2798,-0.2706,-0.2746,-0.2742,-0.2589,-0.2524,-0.2447,-0.2617,-0.2608,-0.2609,-0.261,-0.261,-0.2611,-0.2124,-0.2113,-0.2133,-0.2138,-0.2163,-0.2174,-0.2169,-0.2271,-0.2338,-0.2451,-0.2585,-0.269,-0.2755,-0.2779,-0.2742,-0.2662,-0.2646,-0.2556,-0.2593,-0.255,-0.2461,-0.2618,-0.2595,-0.2596,-0.2597,-0.2598,-0.2598,0,-0.2009,-0.2004,-0.2002,-0.2001,-0.1978,-0.2034,-0.2082,-0.2081,-0.2136,-0.2321,-0.2421,-0.2631,-0.2623,-0.2668,-0.2651,-0.255,-0.2426,-0.2458,-0.2363,-0.2308,-0.2454,-0.2428,-0.2351,-0.2351,-0.2351,-0.2351,-0.2351,-0.2351,-0.194,-0.1889,-0.1888,-0.1804,-0.1805,-0.1738,-0.1739,-0.1784,-0.1892,-0.2074,-0.2291,-0.2502,-0.2614,-0.2766,-0.2643,-0.2508,-0.2386,-0.2303,-0.2302,-0.2424,-0.2434,-0.2445,-0.2422,-0.2346,-0.2346,-0.2037,-0.2036,-0.2034]},{"header":{"parameterUnit":"m.s-1","parameterCategory":2,"la1":30.2991,"la2":30.254,"lo1":-89.0895,"lo2":-89.0444,"dy":0.0017,"dx":0.0017,"nx":28,"ny":28,"refTime":"2024-12-05T09:00:00:Z","depth":"0","parameterNumber":3,"parameterNumberName":"V-component_of_CURRENTS"},"data":[0,0,0,0,0,0,0,0,0,0,0,0,0,0,0,0,0,0,0,0,0,0,0,0,0,0,0,0,0,0,0,0,0,0,0,0,0,0,0,0,0,0,0,0,0,0,0,0,0,0,0,0,0,0,0,0,0,0,-0.0372,-0.0371,0,-0.0298,-0.0297,-0.0296,-0.0248,-0.0248,-0.0247,-0.0247,-0.012,-0.0117,-0.0113,0,0,0,0,0,0,0,0,0,0,0,0,0,-0.0425,-0.0425,-0.0372,-0.0371,-0.037,-0.0298,-0.0297,-0.0296,-0.0248,-0.0248,-0.0247,-0.0247,-0.0121,-0.0117,-0.0113,0,0,0,0,0,0,0,0,0,0,0,0,0,-0.0381,-0.0424,-0.0372,-0.0338,-0.0334,-0.0298,-0.0297,-0.0296,-0.0248,-0.0248,-0.0247,-0.0247,-0.0122,-0.0117,-0.0113,-0.0091,0,0,-0.0098,-0.0096,0,0,0,0,0,0,0,0,-0.0384,-0.0379,-0.0344,-0.034,-0.0336,-0.0282,-0.0269,-0.0225,-0.0248,-0.028,-0.0247,-0.0247,-0.017,-0.0161,-0.0148,-0.0085,-0.0079,-0.0098,-0.0095,-0.0093,-0.0091,0,0,0,0,0,0,0,-0.0387,-0.0382,-0.0342,-0.0343,-0.0338,-0.031,-0.0304,-0.026,-0.0226,-0.0277,-0.0274,-0.0267,-0.0167,-0.0153,-0.0144,-0.0077,-0.0098,-0.0094,-0.0091,-0.0089,0.0018,0.0018,0,0,0,0,0,0,-0.04,-0.0385,-0.0344,-0.034,-0.036,-0.031,-0.0303,-0.0299,-0.0228,-0.0217,-0.0267,-0.0265,-0.0161,-0.015,-0.014,-0.0106,-0.0093,-0.0088,-0.0086,0.0018,0.0018,0.0018,0,0,0,0,0,0,-0.0402,-0.0397,-0.0347,-0.0361,-0.0353,-0.031,-0.0306,-0.0298,-0.0284,-0.0221,-0.0209,-0.0261,-0.016,-0.0146,-0.01,-0.0101,-0.0086,-0.0082,0.0018,0.0018,0.0018,-0.0041,0,0,0,0,0,0,-0.0404,-0.0399,-0.0402,-0.0362,-0.0352,-0.0329,-0.0306,-0.0297,-0.028,-0.0277,-0.0212,-0.02,-0.0159,-0.0107,-0.0095,-0.0094,-0.0078,0.0018,0.0018,0.0018,-0.0039,-0.0043,-0.0047,0,0,0,0,0,-0.0406,-0.0413,-0.0403,-0.0398,-0.0358,-0.0329,-0.0322,-0.0289,-0.0281,-0.0275,-0.0231,-0.0202,-0.0099,-0.0103,-0.0089,-0.0087,0.0018,0.0018,0.0018,-0.0038,-0.0043,-0.0047,0,0,0,0,0,0,-0.0438,-0.0407,-0.0396,-0.0393,-0.0365,-0.0321,-0.0314,-0.0295,-0.0257,-0.0253,-0.0197,-0.0181,-0.0143,-0.0106,-0.0113,-0.0057,-0.0037,-0.0035,-0.0085,-0.0089,-0.0092,-0.0103,-0.0074,0,0,0,0,0,-0.0449,-0.0446,-0.0409,-0.0408,-0.0395,-0.0357,-0.0343,-0.0321,-0.0283,-0.0266,-0.0221,-0.0174,-0.0132,-0.0105,-0.0062,-0.0028,0.0005,-0.0018,-0.0022,-0.0026,-0.0025,0.0019,0.0019,0.0018,0.0018,0.0018,0,0,-0.0461,-0.0444,-0.0442,-0.0415,-0.039,-0.0379,-0.0347,-0.0329,-0.0317,-0.0257,-0.0227,-0.0184,-0.0127,-0.009,-0.007,-0.0058,-0.0009,-0.0026,-0.0029,-0.0026,0.0019,0.0019,0.0019,0.0018,0.0018,0.0018,0,0,-0.0485,-0.047,-0.0474,-0.0454,-0.0424,-0.0398,-0.0396,-0.0354,-0.0331,-0.0297,-0.0255,-0.0214,-0.0149,-0.0108,-0.0079,-0.0077,-0.0033,-0.0066,-0.0088,-0.0046,-0.0046,-0.0045,-0.001,-0.0005,-0.0065,-0.0065,-0.0065,0,-0.0503,-0.0505,-0.047,-0.0468,-0.0459,-0.0412,-0.0414,-0.0382,-0.0331,-0.0311,-0.0295,-0.0203,-0.0157,-0.0109,-0.011,-0.0085,-0.0056,-0.0078,-0.0052,-0.005,-0.0048,-0.0012,-0.0006,-0.0068,-0.0068,-0.0067,-0.0067,0,-0.0525,-0.0529,-0.0529,-0.0513,-0.0495,-0.049,-0.0445,-0.0422,-0.0392,-0.0357,-0.0305,-0.0241,-0.0186,-0.0168,-0.0136,-0.0101,-0.0084,-0.0066,-0.0044,-0.0052,-0.0013,-0.0006,-0.0072,-0.0071,-0.007,-0.007,0,0,-0.0562,-0.0549,-0.0551,-0.0558,-0.0522,-0.0513,-0.0488,-0.0452,-0.0438,-0.0379,-0.0355,-0.028,-0.0243,-0.0208,-0.0161,-0.0123,-0.0089,-0.0094,-0.009,-0.0065,0.0,0.0044,0.0056,-0.0068,-0.0067,-0.0066,0.002,0,-0.0593,-0.0614,-0.059,-0.0607,-0.0616,-0.0567,-0.0551,-0.051,-0.0463,-0.0425,-0.0349,-0.0306,-0.0258,-0.0236,-0.0188,-0.0109,-0.0072,-0.0114,0.0011,0.0015,0.0049,0.0065,0.0072,0.0153,0.0027,0.0028,0.0029,0,-0.0626,-0.0639,-0.0665,-0.0667,-0.0663,-0.066,-0.0629,-0.0605,-0.0531,-0.0495,-0.0429,-0.0366,-0.0288,-0.0258,-0.0122,-0.0151,-0.0084,-0.0026,-0.0021,0.0047,0.0072,0.0143,0.017,0.035,0.004,0.0039,0.0039,0,-0.0684,-0.0693,-0.0722,-0.0721,-0.0707,-0.0705,-0.0689,-0.0629,-0.0615,-0.0537,-0.0518,-0.0406,-0.0359,-0.0249,-0.0114,-0.012,0.0028,0.0037,0.0139,0.0142,0.0188,0.0194,0.04,0.0118,0.0117,0.0117,0.0117,0,-0.0737,-0.076,-0.0754,-0.0773,-0.0803,-0.0764,-0.0773,-0.0736,-0.0687,-0.0679,-0.0562,-0.0529,-0.0357,-0.0246,-0.0126,0.004,0.0026,0.0143,0.0173,0.0168,0.0171,0.0361,0.0446,0.012,0.012,0.0119,0.0119,0,-0.0802,-0.0796,-0.0834,-0.0834,-0.0836,-0.0856,-0.0845,-0.0849,-0.0787,-0.0773,-0.0754,-0.0617,-0.0469,-0.0289,-0.0105,0.0021,0.0278,0.0227,0.021,0.0237,0.05,0.0579,0.0808,0.0871,0.0357,0.0359,0.0361,0,-0.0837,-0.0864,-0.089,-0.0918,-0.0922,-0.094,-0.0957,-0.0911,-0.091,-0.083,-0.0832,-0.0685,-0.0589,-0.0276,-0.0024,0.0214,0.0338,0.0367,0.0362,0.0533,0.0642,0.0693,0.0731,0.0395,0.0396,0.0398,0.0399,0,-0.0905,-0.0911,-0.0939,-0.1,-0.1032,-0.1066,-0.1079,-0.1098,-0.1044,-0.103,-0.0974,-0.089,-0.0569,-0.028,0.0063,0.0211,0.0502,0.0401,0.0588,0.0706,0.0765,0.0832,0.0317,0.041,0.0409,0.0408,0.0408,0.0407,-0.0947,-0.0985,-0.102,-0.1075,-0.1124,-0.1178,-0.1215,-0.1234,-0.1254,-0.1231,-0.1106,-0.0974,-0.0482,0.0003,0.0192,0.0636,0.0604,0.0759,0.0843,0.088,0.0946,0.0459,0.0581,0.0581,0.0581,0.058,0.058,0,-0.0991,-0.1029,-0.1091,-0.1156,-0.1228,-0.123,-0.1286,-0.1325,-0.1381,-0.133,-0.1267,-0.078,-0.0298,0.018,0.0827,0.1075,0.1101,0.1199,0.1277,0.1294,0.0876,0.0884,0.1065,0.1065,0.1065,0.1065,0.1064,0.1064,-0.1013,-0.1075,-0.1104,-0.1222,-0.1278,-0.137,-0.1409,-0.1477,-0.146,-0.1361,-0.1142,-0.0961,-0.0179,0.0924,0.152,0.1559,0.1738,0.1728,0.1828,0.1559,0.1524,0.149,0.1519,0.1831,0.1832,0.2188,0.2192,0.2195]}],[{"header":{"parameterUnit":"m.s-1","parameterCategory":2,"la1":30.2991,"la2":30.254,"lo1":-89.0895,"lo2":-89.0444,"dy":0.0017,"dx":0.0017,"nx":28,"ny":28,"refTime":"2024-12-05T09:00:00:Z","depth":"2","parameterNumber":2,"parameterNumberName":"U-component_of_CURRENTS"},"data":[0,0,0,0,0,0,0,0,0,0,0,0,0,0,0,0,0,0,0,0,0,0,0,0,0,0,0,0,0,0,0,0,0,0,0,0,0,0,0,0,0,0,0,0,0,0,0,0,0,0,0,0,0,0,0,0,0,0,-0.2493,-0.2493,0,-0.252,-0.252,-0.252,-0.251,-0.251,-0.2509,-0.2508,-0.2472,-0.2472,-0.2471,0,0,0,0,0,0,0,0,0,0,0,0,0,-0.2411,-0.2413,-0.2493,-0.2493,-0.2493,-0.252,-0.252,-0.2521,-0.2511,-0.251,-0.2509,-0.2508,-0.2472,-0.2472,-0.2471,0,0,0,0,0,0,0,0,0,0,0,0,0,-0.2444,-0.2413,-0.2493,-0.2491,-0.2491,-0.252,-0.252,-0.2521,-0.2511,-0.251,-0.2509,-0.2508,-0.2472,-0.2472,-0.2471,-0.2488,0,0,-0.247,-0.2469,0,0,0,0,0,0,0,0,-0.2442,-0.2447,-0.2491,-0.2491,-0.2491,-0.251,-0.2478,-0.2506,-0.2511,-0.2504,-0.2508,-0.2507,-0.2479,-0.2478,-0.2487,-0.2486,-0.2484,-0.247,-0.2469,-0.2469,-0.2469,0,0,0,0,0,0,0,-0.244,-0.2445,-0.2504,-0.2491,-0.2492,-0.2482,-0.2486,-0.2484,-0.2496,-0.2504,-0.2504,-0.2506,-0.2479,-0.2488,-0.2486,-0.2484,-0.247,-0.2469,-0.2469,-0.2469,-0.2487,-0.2488,0,0,0,0,0,0,-0.2438,-0.2444,-0.2503,-0.2505,-0.2463,-0.2484,-0.2488,-0.2506,-0.2497,-0.2495,-0.2507,-0.2506,-0.2489,-0.2487,-0.2484,-0.2492,-0.2469,-0.2468,-0.2468,-0.2487,-0.2488,-0.2489,0,0,0,0,0,0,-0.2437,-0.2444,-0.2502,-0.2473,-0.248,-0.2487,-0.2506,-0.2507,-0.2513,-0.25,-0.2497,-0.2512,-0.2488,-0.2485,-0.2478,-0.249,-0.2468,-0.2468,-0.2486,-0.2487,-0.2488,-0.2513,0,0,0,0,0,0,-0.2434,-0.2444,-0.2453,-0.2474,-0.2481,-0.2517,-0.2507,-0.2508,-0.2516,-0.2515,-0.2503,-0.2499,-0.2487,-0.2479,-0.2478,-0.2489,-0.2467,-0.2485,-0.2486,-0.2488,-0.2512,-0.2515,-0.2519,0,0,0,0,0,-0.2432,-0.245,-0.2454,-0.2461,-0.2496,-0.2517,-0.252,-0.2521,-0.2517,-0.2523,-0.2512,-0.25,-0.2488,-0.2479,-0.2477,-0.2489,-0.2484,-0.2486,-0.2488,-0.251,-0.2515,-0.2519,0,0,0,0,0,0,-0.242,-0.2451,-0.2456,-0.2483,-0.2497,-0.2515,-0.252,-0.2525,-0.2525,-0.2519,-0.2506,-0.2501,-0.2503,-0.2495,-0.2485,-0.2501,-0.2486,-0.2488,-0.2504,-0.2508,-0.2512,-0.252,-0.2467,0,0,0,0,0,-0.2423,-0.2441,-0.2468,-0.2486,-0.2496,-0.251,-0.2517,-0.2521,-0.2525,-0.2525,-0.2517,-0.2511,-0.2512,-0.2507,-0.2505,-0.251,-0.2508,-0.2519,-0.2523,-0.2526,-0.2533,-0.2538,-0.2543,-0.2495,-0.2495,-0.2495,0,0,-0.2421,-0.244,-0.245,-0.2483,-0.2494,-0.2514,-0.2512,-0.2526,-0.254,-0.252,-0.2528,-0.2522,-0.2517,-0.2523,-0.2524,-0.2514,-0.2539,-0.2528,-0.253,-0.2536,-0.2541,-0.2545,-0.2549,-0.2496,-0.2496,-0.2495,0,0,-0.2421,-0.2447,-0.2459,-0.2478,-0.2498,-0.2514,-0.2519,-0.254,-0.2545,-0.2553,-0.2547,-0.2549,-0.2544,-0.2548,-0.2549,-0.2573,-0.256,-0.2572,-0.2593,-0.2599,-0.2602,-0.2606,-0.2611,-0.2615,-0.2571,-0.2572,-0.2572,0,-0.2413,-0.2443,-0.2463,-0.2482,-0.25,-0.2515,-0.2535,-0.255,-0.2562,-0.2571,-0.2555,-0.2569,-0.256,-0.2581,-0.2587,-0.2582,-0.258,-0.2575,-0.2603,-0.2606,-0.2609,-0.2614,-0.2618,-0.2573,-0.2573,-0.2573,-0.2573,0,-0.2423,-0.245,-0.246,-0.2493,-0.2514,-0.2533,-0.2561,-0.2577,-0.2583,-0.2595,-0.2611,-0.2604,-0.2611,-0.2613,-0.2605,-0.2629,-0.262,-0.2607,-0.259,-0.2615,-0.2619,-0.2622,-0.2575,-0.2575,-0.2574,-0.2574,0,0,-0.2387,-0.2455,-0.2455,-0.2477,-0.2524,-0.254,-0.2574,-0.2608,-0.263,-0.2635,-0.266,-0.2664,-0.266,-0.2662,-0.2656,-0.2662,-0.268,-0.2643,-0.2642,-0.2646,-0.2691,-0.2679,-0.2681,-0.2667,-0.2667,-0.2668,-0.2685,0,-0.2383,-0.2425,-0.2462,-0.2498,-0.2525,-0.2564,-0.2596,-0.2628,-0.265,-0.2678,-0.2684,-0.2699,-0.2679,-0.2681,-0.2686,-0.2684,-0.269,-0.2676,-0.2669,-0.2669,-0.2652,-0.2685,-0.2432,-0.2425,-0.2688,-0.2689,-0.2689,0,-0.2368,-0.2406,-0.2447,-0.2513,-0.2527,-0.2551,-0.2608,-0.2638,-0.2689,-0.2705,-0.2726,-0.2734,-0.2752,-0.2726,-0.2735,-0.2724,-0.2712,-0.2706,-0.2706,-0.2689,-0.2663,-0.2443,-0.2421,-0.2695,-0.2694,-0.2694,-0.2694,0,-0.2321,-0.2387,-0.2422,-0.2445,-0.2524,-0.2545,-0.258,-0.2638,-0.2667,-0.272,-0.2745,-0.2767,-0.2779,-0.277,-0.2768,-0.2745,-0.2779,-0.2744,-0.2724,-0.2722,-0.2504,-0.2483,-0.275,-0.275,-0.275,-0.275,-0.275,0,-0.23,-0.2323,-0.2401,-0.2421,-0.2451,-0.2517,-0.2552,-0.2594,-0.2662,-0.2697,-0.2745,-0.2776,-0.2789,-0.2813,-0.2791,-0.278,-0.2796,-0.2739,-0.2731,-0.2508,-0.2488,-0.2717,-0.2713,-0.2751,-0.2751,-0.2751,-0.2751,0,-0.2236,-0.2295,-0.233,-0.241,-0.2428,-0.2443,-0.2518,-0.2546,-0.2626,-0.2676,-0.2694,-0.2782,-0.281,-0.2833,-0.2837,-0.2812,-0.2802,-0.2794,-0.2543,-0.2505,-0.273,-0.2727,-0.2755,-0.2755,-0.2755,-0.2755,-0.2755,0,-0.2209,-0.2223,-0.2291,-0.2299,-0.233,-0.237,-0.2394,-0.2495,-0.2534,-0.2671,-0.2686,-0.2766,-0.2797,-0.283,-0.2787,-0.2763,-0.2811,-0.2533,-0.245,-0.2744,-0.2733,-0.273,-0.2727,-0.216,-0.2155,-0.2151,-0.2148,0,-0.2141,-0.2162,-0.2187,-0.2205,-0.2227,-0.2257,-0.2309,-0.2344,-0.247,-0.2541,-0.2632,-0.2681,-0.2731,-0.261,-0.2616,-0.2554,-0.2517,-0.2453,-0.2806,-0.2223,-0.2191,-0.2178,-0.2192,-0.2112,-0.2115,-0.2118,-0.212,-0.2121,-0.2064,-0.2054,-0.2076,-0.2082,-0.2108,-0.2118,-0.2113,-0.2202,-0.2262,-0.2339,-0.2478,-0.2487,-0.2483,-0.2375,-0.228,-0.2196,-0.2365,-0.2221,-0.2229,-0.2242,-0.2195,-0.2167,-0.2074,-0.2077,-0.208,-0.2082,-0.2084,0,-0.1948,-0.1949,-0.1948,-0.1949,-0.1922,-0.1983,-0.2028,-0.2005,-0.204,-0.2147,-0.221,-0.2034,-0.1978,-0.1981,-0.1809,-0.1802,-0.1726,-0.1704,-0.1576,-0.1614,-0.1647,-0.1566,-0.128,-0.1277,-0.1275,-0.1273,0,0,-0.1881,-0.1831,-0.183,-0.1748,-0.1753,-0.1681,-0.1681,-0.1685,-0.1724,-0.1723,-0.1741,-0.1903,-0.1953,-0.163,-0.1543,-0.139,-0.1482,-0.1313,-0.1955,-0.1843,-0.1873,-0.1941,-0.186,0,0,0,0,0]},{"header":{"parameterUnit":"m.s-1","parameterCategory":2,"la1":30.2991,"la2":30.254,"lo1":-89.0895,"lo2":-89.0444,"dy":0.0017,"dx":0.0017,"nx":28,"ny":28,"refTime":"2024-12-05T09:00:00:Z","depth":"2","parameterNumber":3,"parameterNumberName":"V-component_of_CURRENTS"},"data":[0,0,0,0,0,0,0,0,0,0,0,0,0,0,0,0,0,0,0,0,0,0,0,0,0,0,0,0,0,0,0,0,0,0,0,0,0,0,0,0,0,0,0,0,0,0,0,0,0,0,0,0,0,0,0,0,0,0,-0.0277,-0.0276,0,-0.0202,-0.0201,-0.02,-0.0156,-0.0156,-0.0155,-0.0155,-0.0034,-0.0031,-0.0028,0,0,0,0,0,0,0,0,0,0,0,0,0,-0.0327,-0.0326,-0.0277,-0.0276,-0.0275,-0.0202,-0.0201,-0.02,-0.0156,-0.0156,-0.0155,-0.0155,-0.0035,-0.0031,-0.0028,0,0,0,0,0,0,0,0,0,0,0,0,0,-0.0284,-0.0326,-0.0277,-0.0244,-0.024,-0.0202,-0.0201,-0.02,-0.0156,-0.0155,-0.0155,-0.0155,-0.0036,-0.0032,-0.0027,-0.0005,0,0,-0.0013,-0.0011,0,0,0,0,0,0,0,0,-0.0287,-0.0282,-0.025,-0.0246,-0.0242,-0.0188,-0.0174,-0.0132,-0.0156,-0.0188,-0.0155,-0.0155,-0.0081,-0.0073,-0.006,0.0001,0.0006,-0.0013,-0.001,-0.0008,-0.0007,0,0,0,0,0,0,0,-0.029,-0.0285,-0.0247,-0.0249,-0.0244,-0.0214,-0.0208,-0.0166,-0.0136,-0.0185,-0.0182,-0.0173,-0.0079,-0.0065,-0.0057,0.0008,-0.0013,-0.0009,-0.0006,-0.0004,0.0096,0.0095,0,0,0,0,0,0,-0.0302,-0.0288,-0.0249,-0.0245,-0.0264,-0.0214,-0.0207,-0.0206,-0.0138,-0.0127,-0.0174,-0.0172,-0.0073,-0.0062,-0.0052,-0.0024,-0.0008,-0.0004,-0.0001,0.0096,0.0095,0.0095,0,0,0,0,0,0,-0.0303,-0.03,-0.0252,-0.0264,-0.0256,-0.0214,-0.0212,-0.0204,-0.0192,-0.013,-0.0118,-0.0169,-0.0072,-0.0059,-0.0016,-0.0019,-0.0002,0.0002,0.0096,0.0096,0.0095,0.0035,0,0,0,0,0,0,-0.0305,-0.0301,-0.0306,-0.0265,-0.0256,-0.0235,-0.0212,-0.0203,-0.0187,-0.0183,-0.0122,-0.011,-0.0071,-0.0023,-0.0011,-0.0012,0.0006,0.0096,0.0096,0.0095,0.0037,0.0032,0.0029,0,0,0,0,0,-0.0308,-0.0316,-0.0307,-0.0302,-0.0264,-0.0235,-0.0228,-0.0196,-0.0187,-0.0184,-0.0141,-0.0112,-0.0016,-0.0019,-0.0005,-0.0005,0.0096,0.0096,0.0096,0.0038,0.0033,0.0029,0,0,0,0,0,0,-0.0341,-0.031,-0.03,-0.0299,-0.0272,-0.0228,-0.0221,-0.0202,-0.0167,-0.0163,-0.0108,-0.0093,-0.0059,-0.0023,-0.0028,0.0023,0.0043,0.0046,-0.0005,-0.0009,-0.0013,-0.0024,0.001,0,0,0,0,0,-0.0352,-0.035,-0.0314,-0.0314,-0.0302,-0.0265,-0.025,-0.023,-0.0192,-0.0177,-0.0134,-0.0089,-0.0049,-0.0023,0.0017,0.0049,0.0082,0.0057,0.0053,0.0049,0.005,0.0092,0.0092,0.0095,0.0095,0.0095,0,0,-0.0365,-0.0349,-0.0347,-0.0321,-0.0298,-0.0288,-0.0255,-0.0238,-0.0227,-0.0168,-0.0142,-0.0101,-0.0044,-0.0011,0.0008,0.0019,0.0065,0.0049,0.0045,0.0048,0.0092,0.0092,0.0091,0.0095,0.0095,0.0095,0,0,-0.0391,-0.0376,-0.0382,-0.0363,-0.0334,-0.0308,-0.0307,-0.0266,-0.0245,-0.0214,-0.0172,-0.0133,-0.0072,-0.0032,-0.0004,-0.0004,0.004,0.0005,-0.0018,0.0023,0.0023,0.0023,0.0059,0.0063,0.0006,0.0006,0.0006,0,-0.0408,-0.0413,-0.0379,-0.0379,-0.037,-0.0323,-0.0327,-0.0297,-0.0248,-0.0229,-0.0214,-0.0126,-0.0081,-0.0036,-0.0037,-0.0013,0.0015,-0.0006,0.0017,0.0018,0.002,0.0056,0.0061,0.0003,0.0003,0.0004,0.0004,0,-0.0434,-0.044,-0.0441,-0.0428,-0.0411,-0.0407,-0.0363,-0.0342,-0.0313,-0.0279,-0.023,-0.0167,-0.0114,-0.0097,-0.0065,-0.0033,-0.0015,0.0003,0.0025,0.0015,0.0055,0.0061,-0.0001,-0.0,0.0001,0.0001,0,0,-0.0474,-0.0463,-0.0466,-0.0473,-0.0439,-0.0431,-0.0409,-0.0374,-0.0362,-0.0306,-0.0283,-0.0211,-0.0175,-0.0141,-0.0094,-0.0056,-0.0025,-0.0028,-0.0024,0.0001,0.0062,0.0106,0.0117,-0.0004,-0.0003,-0.0003,0.0083,0,-0.0508,-0.0532,-0.0508,-0.0528,-0.0537,-0.0489,-0.0475,-0.0435,-0.039,-0.0353,-0.0279,-0.0238,-0.0191,-0.0169,-0.0123,-0.0045,-0.0009,-0.0049,0.0074,0.0078,0.0113,0.0126,0.0099,0.0176,0.009,0.0091,0.0092,0,-0.0544,-0.0558,-0.0587,-0.0588,-0.0585,-0.0584,-0.0553,-0.0532,-0.046,-0.0425,-0.0361,-0.0299,-0.0223,-0.0194,-0.006,-0.0089,-0.0022,0.0035,0.004,0.0108,0.0134,0.0175,0.0192,0.0103,0.0102,0.0101,0.0101,0,-0.0603,-0.0614,-0.0643,-0.0643,-0.063,-0.0629,-0.0615,-0.0557,-0.0543,-0.0468,-0.045,-0.0341,-0.0295,-0.0187,-0.0053,-0.0059,0.0088,0.0096,0.0197,0.0201,0.0218,0.0222,0.0175,0.0175,0.0175,0.0174,0.0174,0,-0.0656,-0.068,-0.0675,-0.0695,-0.0726,-0.0688,-0.0698,-0.0663,-0.0615,-0.0608,-0.0494,-0.0461,-0.0294,-0.0183,-0.0065,0.0099,0.0085,0.02,0.023,0.0196,0.0197,0.0166,0.0163,0.0178,0.0177,0.0176,0.0176,0,-0.0719,-0.0715,-0.0754,-0.0756,-0.0758,-0.078,-0.077,-0.0774,-0.0714,-0.0701,-0.0682,-0.0548,-0.0402,-0.0226,-0.0045,0.0079,0.0231,0.0283,0.0234,0.0257,0.0316,0.0309,0.0407,0.041,0.0412,0.0413,0.0415,0,-0.0754,-0.0782,-0.081,-0.0838,-0.0843,-0.0863,-0.088,-0.0835,-0.0834,-0.0756,-0.0757,-0.0613,-0.0516,-0.0209,0.0035,0.0269,0.0261,0.0386,0.0376,0.0323,0.0342,0.0332,0.0323,0.0369,0.037,0.0371,0.0372,0,-0.082,-0.0827,-0.0857,-0.0919,-0.0952,-0.0986,-0.0999,-0.1017,-0.0964,-0.0948,-0.089,-0.0806,-0.0495,-0.0224,0.0109,0.0245,0.0356,0.041,0.0376,0.0317,0.0295,0.0311,0.0302,0.0378,0.0378,0.0377,0.0377,0.0376,-0.0861,-0.0899,-0.0937,-0.0992,-0.1042,-0.1095,-0.113,-0.1138,-0.1153,-0.1104,-0.0994,-0.0835,-0.0536,-0.0071,0.0175,0.0425,0.041,0.0482,0.0476,0.0471,0.0453,0.0436,0.0543,0.0543,0.0543,0.0543,0.0544,0,-0.09,-0.0944,-0.1006,-0.1073,-0.1137,-0.1147,-0.12,-0.1211,-0.1247,-0.1164,-0.1079,-0.0747,-0.0417,-0.0104,0.0293,0.0524,0.0502,0.0562,0.0488,0.0481,0.0474,0.0454,0.0545,0.0546,0.0546,0.0547,0,0,-0.0922,-0.0982,-0.1012,-0.1125,-0.1186,-0.1262,-0.13,-0.1315,-0.1261,-0.1195,-0.1059,-0.0818,-0.0429,-0.0143,0.015,0.0355,0.0351,0.0373,0.0349,0.0219,0.0209,0.0409,0.0368,0,0,0,0,0]}],[{"header":{"parameterUnit":"m.s-1","parameterCategory":2,"la1":30.2991,"la2":30.254,"lo1":-89.0895,"lo2":-89.0444,"dy":0.0017,"dx":0.0017,"nx":28,"ny":28,"refTime":"2024-12-05T09:00:00:Z","depth":"4","parameterNumber":2,"parameterNumberName":"U-component_of_CURRENTS"},"data":[0,0,0,0,0,0,0,0,0,0,0,0,0,0,0,0,0,0,0,0,0,0,0,0,0,0,0,0,0,0,0,0,0,0,0,0,0,0,0,0,0,0,0,0,0,0,0,0,0,0,0,0,0,0,0,0,0,0,-0.1503,-0.1505,0,-0.157,-0.157,-0.157,-0.1585,-0.1585,-0.1585,-0.1585,-0.171,-0.1714,-0.1717,0,0,0,0,0,0,0,0,0,0,0,0,0,-0.138,-0.1382,-0.1503,-0.1505,-0.1506,-0.157,-0.157,-0.157,-0.1585,-0.1585,-0.1585,-0.1585,-0.1709,-0.1713,-0.1717,0,0,0,0,0,0,0,0,0,0,0,0,0,-0.1434,-0.1383,-0.1503,-0.1525,-0.1528,-0.157,-0.157,-0.1571,-0.1585,-0.1585,-0.1585,-0.1585,-0.1708,-0.1713,-0.1718,-0.1749,0,0,-0.1733,-0.1735,0,0,0,0,0,0,0,0,-0.1431,-0.1438,-0.152,-0.1523,-0.1527,-0.1573,-0.1573,-0.1635,-0.1585,-0.1558,-0.1585,-0.1585,-0.1673,-0.1681,-0.1686,-0.1755,-0.1761,-0.1734,-0.1737,-0.1739,-0.174,0,0,0,0,0,0,0,-0.1427,-0.1435,-0.1525,-0.1522,-0.1526,-0.1528,-0.1535,-0.1584,-0.1612,-0.1561,-0.1563,-0.1578,-0.1675,-0.1681,-0.1689,-0.1763,-0.1734,-0.1738,-0.1741,-0.1743,-0.1928,-0.193,0,0,0,0,0,0,-0.143,-0.1432,-0.1523,-0.1527,-0.1483,-0.1531,-0.1538,-0.1554,-0.1611,-0.162,-0.1578,-0.1579,-0.1672,-0.1683,-0.1694,-0.1799,-0.1739,-0.1744,-0.1746,-0.1926,-0.1929,-0.1931,0,0,0,0,0,0,-0.1427,-0.1437,-0.152,-0.1485,-0.1496,-0.1533,-0.1551,-0.1556,-0.1595,-0.1624,-0.1634,-0.1616,-0.1673,-0.1687,-0.1772,-0.1802,-0.1746,-0.175,-0.1924,-0.1927,-0.193,-0.1969,0,0,0,0,0,0,-0.1423,-0.1436,-0.146,-0.1485,-0.1498,-0.1576,-0.1552,-0.1557,-0.1604,-0.1606,-0.166,-0.1669,-0.1674,-0.1765,-0.1777,-0.1808,-0.1754,-0.1922,-0.1925,-0.1929,-0.1966,-0.1973,-0.198,0,0,0,0,0,-0.1418,-0.1456,-0.1461,-0.1473,-0.1526,-0.1578,-0.1586,-0.1608,-0.1607,-0.1639,-0.1674,-0.1669,-0.1795,-0.1771,-0.1785,-0.1818,-0.192,-0.1924,-0.1928,-0.1963,-0.1972,-0.198,0,0,0,0,0,0,-0.1423,-0.1462,-0.1468,-0.1517,-0.1558,-0.1584,-0.1621,-0.1631,-0.1681,-0.1693,-0.1707,-0.172,-0.18,-0.1813,-0.1785,-0.1881,-0.1852,-0.1859,-0.1873,-0.1882,-0.1889,-0.1879,-0.1758,0,0,0,0,0,-0.1433,-0.1469,-0.1506,-0.1551,-0.1574,-0.1602,-0.163,-0.1648,-0.169,-0.1711,-0.1748,-0.1786,-0.1823,-0.1857,-0.1895,-0.1963,-0.1954,-0.199,-0.1997,-0.2003,-0.2005,-0.2014,-0.2021,-0.1945,-0.1945,-0.1945,0,0,-0.1445,-0.1476,-0.1495,-0.1554,-0.1585,-0.1628,-0.1619,-0.168,-0.1716,-0.1721,-0.1798,-0.1823,-0.1848,-0.1912,-0.1948,-0.1932,-0.2023,-0.2008,-0.2013,-0.2011,-0.2019,-0.2026,-0.2033,-0.1948,-0.1947,-0.1947,0,0,-0.1486,-0.1519,-0.1559,-0.1597,-0.1659,-0.1677,-0.1704,-0.1754,-0.1781,-0.1856,-0.1856,-0.1904,-0.1978,-0.1988,-0.2002,-0.2077,-0.206,-0.2094,-0.2124,-0.2134,-0.214,-0.2145,-0.2147,-0.2152,-0.2096,-0.2096,-0.2097,0,-0.1503,-0.1549,-0.1583,-0.1633,-0.1666,-0.1703,-0.175,-0.1786,-0.1859,-0.1884,-0.1894,-0.1978,-0.2006,-0.2051,-0.2073,-0.2092,-0.2092,-0.2086,-0.2141,-0.2145,-0.215,-0.2151,-0.2155,-0.2099,-0.2099,-0.2098,-0.2098,0,-0.1559,-0.1606,-0.1641,-0.1704,-0.1748,-0.1803,-0.1849,-0.1902,-0.1937,-0.1961,-0.2034,-0.2066,-0.2106,-0.2123,-0.2125,-0.217,-0.2159,-0.2146,-0.2112,-0.2159,-0.2158,-0.2162,-0.2102,-0.2102,-0.2101,-0.21,0,0,-0.1563,-0.1658,-0.1672,-0.1702,-0.1788,-0.1825,-0.1898,-0.1958,-0.1996,-0.2062,-0.2105,-0.2163,-0.2172,-0.2187,-0.2194,-0.2207,-0.2241,-0.2196,-0.2196,-0.2186,-0.2262,-0.2132,-0.2123,-0.2237,-0.2238,-0.2238,-0.225,0,-0.1595,-0.1679,-0.1725,-0.1803,-0.184,-0.1897,-0.1954,-0.2016,-0.2066,-0.2123,-0.2151,-0.2202,-0.2197,-0.222,-0.2235,-0.2241,-0.2254,-0.2239,-0.2229,-0.2229,-0.2096,-0.2124,-0.2241,-0.2253,-0.2253,-0.2254,-0.2254,0,-0.1616,-0.1672,-0.1749,-0.1829,-0.1854,-0.1911,-0.1992,-0.205,-0.2129,-0.2168,-0.2216,-0.2242,-0.2283,-0.2269,-0.2294,-0.2287,-0.2282,-0.228,-0.228,-0.2144,-0.2105,-0.2197,-0.2261,-0.2261,-0.226,-0.226,-0.2259,0,-0.1564,-0.1676,-0.1733,-0.1766,-0.1873,-0.192,-0.1978,-0.2064,-0.2109,-0.2197,-0.2235,-0.2283,-0.2314,-0.2318,-0.2326,-0.2315,-0.2345,-0.232,-0.2198,-0.2189,-0.2284,-0.2279,-0.2334,-0.2334,-0.2334,-0.2334,-0.2334,0,-0.1546,-0.1592,-0.1719,-0.1748,-0.1814,-0.1901,-0.1973,-0.2035,-0.2127,-0.217,-0.225,-0.2278,-0.233,-0.2355,-0.2344,-0.228,-0.2357,-0.2201,-0.218,-0.2303,-0.23,-0.2287,-0.2281,-0.2335,-0.2335,-0.2335,-0.2334,0,-0.1459,-0.1549,-0.1615,-0.1745,-0.1788,-0.1831,-0.1956,-0.1997,-0.2103,-0.2161,-0.2192,-0.2286,-0.2305,-0.2343,-0.2357,-0.2286,-0.2252,-0.2215,-0.2356,-0.2343,-0.2084,-0.208,-0.2054,-0.205,-0.2046,-0.2043,-0.204,0,-0.1413,-0.1444,-0.1588,-0.1628,-0.1691,-0.1778,-0.1829,-0.1958,-0.1999,-0.214,-0.2147,-0.2226,-0.2267,-0.218,-0.2234,-0.22,-0.2178,-0.2148,-0.2098,-0.2071,-0.2054,-0.2057,-0.2059,-0.2034,-0.2033,-0.2032,-0.2031,0,-0.1321,-0.1389,-0.1447,-0.1529,-0.1598,-0.1661,-0.1749,-0.1768,-0.1907,-0.2028,-0.2042,-0.2055,-0.2079,-0.2079,-0.2081,-0.2056,-0.2155,-0.2107,-0.2114,-0.2066,-0.2046,-0.2034,-0.204,-0.2017,-0.2019,-0.2021,-0.2021,0,-0.1247,-0.1265,-0.1354,-0.1407,-0.1486,-0.1513,-0.1582,-0.1636,-0.1697,-0.1862,-0.1862,-0.1953,-0.2055,-0.2005,-0.2005,-0.1972,-0.1927,-0.1854,-0.1874,-0.1889,-0.1829,-0.1779,-0.1646,0,0,0,0,0,-0.1168,-0.1179,-0.1223,-0.1282,-0.1351,-0.1396,-0.151,-0.1586,-0.1731,-0.169,-0.1772,-0.1787,-0.1788,-0.1839,-0.1766,-0.1918,-0.1931,-0.1825,-0.1857,-0.1943,-0.1958,-0.1903,0,0,0,0,0,0,-0.1117,-0.1158,-0.1179,-0.1158,-0.1171,-0.1234,-0.1298,-0.1403,-0.1395,-0.1548,-0.1555,-0.1673,-0.1696,-0.1797,-0.1726,-0.174,-0.1722,-0.1892,-0.1887,-0.1934,-0.1948,-0.1961,-0.1909,0,0,0,0,0]},{"header":{"parameterUnit":"m.s-1","parameterCategory":2,"la1":30.2991,"la2":30.254,"lo1":-89.0895,"lo2":-89.0444,"dy":0.0017,"dx":0.0017,"nx":28,"ny":28,"refTime":"2024-12-05T09:00:00:Z","depth":"4","parameterNumber":3,"parameterNumberName":"V-component_of_CURRENTS"},"data":[0,0,0,0,0,0,0,0,0,0,0,0,0,0,0,0,0,0,0,0,0,0,0,0,0,0,0,0,0,0,0,0,0,0,0,0,0,0,0,0,0,0,0,0,0,0,0,0,0,0,0,0,0,0,0,0,0,0,-0.0024,-0.0024,0,0.0017,0.0018,0.0018,0.0063,0.0064,0.0064,0.0065,0.0133,0.0134,0.0135,0,0,0,0,0,0,0,0,0,0,0,0,0,-0.0024,-0.0024,-0.0024,-0.0024,-0.0024,0.0017,0.0018,0.0019,0.0063,0.0064,0.0064,0.0065,0.0132,0.0134,0.0135,0,0,0,0,0,0,0,0,0,0,0,0,0,-0.0006,-0.0024,-0.0025,0.0002,0.0005,0.0017,0.0018,0.0019,0.0063,0.0064,0.0064,0.0065,0.0132,0.0134,0.0136,0.0134,0,0,0.0142,0.0143,0,0,0,0,0,0,0,0,-0.0007,-0.0006,-0.0002,0.0,0.0003,0.0034,0.0043,0.0058,0.0063,0.0043,0.0065,0.0065,0.01,0.0105,0.0113,0.0137,0.014,0.0142,0.0143,0.0144,0.0145,0,0,0,0,0,0,0,-0.0008,-0.0007,-0.0006,-0.0002,0.0001,0.0026,0.0029,0.0046,0.0069,0.0045,0.0047,0.0049,0.0102,0.0111,0.0115,0.0141,0.0142,0.0144,0.0145,0.0146,0.0179,0.0178,0,0,0,0,0,0,-0.002,-0.0009,-0.0008,-0.0005,-0.0002,0.0025,0.0029,0.0025,0.0068,0.0075,0.0048,0.0051,0.0107,0.0113,0.0118,0.0118,0.0144,0.0146,0.0147,0.0179,0.0179,0.0178,0,0,0,0,0,0,-0.002,-0.002,-0.0009,-0.0007,-0.0004,0.0024,0.002,0.0025,0.0033,0.0071,0.0078,0.005,0.0108,0.0115,0.013,0.0121,0.0147,0.0149,0.018,0.0179,0.0178,0.0119,0,0,0,0,0,0,-0.002,-0.0021,-0.0028,-0.0008,-0.0004,-0.0011,0.0019,0.0026,0.0032,0.0036,0.0074,0.0082,0.0109,0.0126,0.0132,0.0125,0.015,0.018,0.0179,0.0179,0.0122,0.0117,0.0113,0,0,0,0,0,-0.0021,-0.0039,-0.0029,-0.0029,-0.0015,-0.0012,-0.0008,0.0017,0.0032,0.0028,0.0057,0.008,0.0126,0.0127,0.0134,0.0127,0.018,0.0179,0.0179,0.0124,0.0118,0.0113,0,0,0,0,0,0,-0.0044,-0.0036,-0.0024,-0.0039,-0.0029,-0.0005,-0.0008,0.001,0.0029,0.0033,0.0073,0.0082,0.0093,0.0116,0.0117,0.0136,0.0158,0.0159,0.0114,0.0109,0.0105,0.0099,0.0152,0,0,0,0,0,-0.0054,-0.0064,-0.0048,-0.0061,-0.0058,-0.0033,-0.0028,-0.0015,0.0005,0.0014,0.0042,0.0071,0.0094,0.0106,0.0128,0.0134,0.0164,0.0136,0.0131,0.0127,0.0128,0.016,0.0158,0.0176,0.0176,0.0176,0,0,-0.0065,-0.0064,-0.0068,-0.0066,-0.0055,-0.0061,-0.0028,-0.003,-0.003,0.0018,0.0025,0.0054,0.0092,0.0102,0.0109,0.0121,0.0138,0.0126,0.0122,0.0125,0.0159,0.0157,0.0156,0.0175,0.0175,0.0175,0,0,-0.01,-0.0094,-0.0113,-0.0109,-0.0103,-0.0087,-0.0091,-0.0072,-0.0057,-0.005,-0.0012,0.0011,0.004,0.0069,0.0088,0.0071,0.0111,0.0077,0.0051,0.0082,0.0081,0.008,0.0113,0.0116,0.0076,0.0076,0.0076,0,-0.0116,-0.0136,-0.0118,-0.0136,-0.0136,-0.0104,-0.0122,-0.0105,-0.0082,-0.0071,-0.0057,-0.0003,0.0026,0.005,0.0047,0.006,0.0086,0.0067,0.0076,0.0076,0.0076,0.011,0.0114,0.0073,0.0073,0.0074,0.0074,0,-0.0161,-0.0176,-0.0189,-0.0197,-0.0195,-0.0207,-0.0183,-0.0176,-0.0154,-0.0131,-0.0106,-0.0061,-0.0026,-0.0014,0.0011,0.0029,0.0049,0.0064,0.0087,0.0071,0.0107,0.0112,0.0069,0.007,0.0071,0.0072,0,0,-0.0202,-0.0218,-0.0223,-0.0235,-0.0229,-0.0234,-0.0233,-0.022,-0.0215,-0.0182,-0.0171,-0.0125,-0.0092,-0.0069,-0.0029,-0.0001,0.0023,0.0028,0.0032,0.0057,0.0093,0.0107,0.0115,0.0039,0.0039,0.004,0.0116,0,-0.0244,-0.0289,-0.0283,-0.0317,-0.0334,-0.0305,-0.0307,-0.0288,-0.0259,-0.0239,-0.0182,-0.0157,-0.0115,-0.0098,-0.0063,0.0006,0.0034,0.0001,0.0109,0.0113,0.0124,0.012,0.0041,0.012,0.0122,0.0123,0.0123,0,-0.0288,-0.0313,-0.0358,-0.0374,-0.0379,-0.0393,-0.0383,-0.038,-0.0336,-0.0312,-0.0268,-0.0218,-0.016,-0.0131,-0.0021,-0.0044,0.0016,0.0068,0.0072,0.011,0.0136,0.0143,0.0133,0.0132,0.0131,0.0131,0.013,0,-0.0324,-0.0363,-0.0401,-0.0408,-0.0422,-0.0433,-0.0434,-0.0404,-0.0402,-0.0354,-0.0343,-0.0262,-0.0225,-0.0134,-0.0016,-0.0021,0.0103,0.0111,0.018,0.0183,0.0173,0.0173,0.0176,0.0176,0.0176,0.0175,0.0175,0,-0.0364,-0.0394,-0.0424,-0.0446,-0.0489,-0.0478,-0.0503,-0.0487,-0.0465,-0.0466,-0.0384,-0.0358,-0.0227,-0.0134,-0.003,0.0099,0.0098,0.0178,0.0203,0.0146,0.0142,0.0177,0.0176,0.0178,0.0178,0.0177,0.0177,0,-0.0388,-0.0409,-0.0458,-0.0493,-0.0509,-0.0536,-0.0561,-0.0574,-0.0543,-0.0539,-0.0528,-0.0429,-0.0308,-0.0166,-0.0013,0.0076,0.0202,0.0243,0.0177,0.0197,0.0261,0.0256,0.0323,0.0324,0.0325,0.0326,0.0326,0,-0.0398,-0.0428,-0.0497,-0.0535,-0.0555,-0.0595,-0.0625,-0.0617,-0.0622,-0.0578,-0.0575,-0.0468,-0.0387,-0.0152,-0.0005,0.02,0.0224,0.0294,0.0272,0.0259,0.0277,0.027,0.0264,0.0328,0.0328,0.0328,0.0329,0,-0.0418,-0.0448,-0.0489,-0.0572,-0.0623,-0.0673,-0.0706,-0.0718,-0.07,-0.0682,-0.0606,-0.0478,-0.0343,-0.0158,0.0004,0.015,0.0256,0.0304,0.0303,0.0283,0.0266,0.0281,0.0274,0.0332,0.0331,0.0331,0.0331,0,-0.0426,-0.0465,-0.053,-0.0596,-0.0669,-0.0723,-0.074,-0.0738,-0.0738,-0.0682,-0.0658,-0.0502,-0.0411,-0.0184,-0.003,0.0116,0.0144,0.0192,0.0197,0.0195,0.0138,0.0097,0.0133,0,0,0,0,0,-0.0426,-0.0477,-0.0548,-0.0625,-0.0697,-0.0737,-0.0782,-0.0786,-0.0773,-0.0729,-0.069,-0.0559,-0.0327,-0.0219,-0.0074,-0.002,0.0166,0.0156,0.0222,0.035,0.0347,0.0303,0,0,0,0,0,0,-0.0431,-0.05,-0.0545,-0.0629,-0.0685,-0.0759,-0.0792,-0.0788,-0.0748,-0.0717,-0.0594,-0.0521,-0.0297,-0.0416,-0.0072,-0.0026,0.0038,0.0267,0.027,0.0353,0.0349,0.0346,0.03,0,0,0,0,0]}]]